OE2WAO-15 Weather Reports


time (UTC)temp
F
wind
direction
speed
knots
gust
knots
rain 1hr
in
rain 24hr
in
rain mn
in
humidity
%
barometer
mb
20260506002855 58 0.0 0.0 0.00 0.00 0.00 99 1008.6
20260506001848 58 0.0 0.0 0.00 0.00 0.00 99 1008.6
20260506000840 58 0.0 0.0 0.00 0.00 0.00 99 1008.7
20260505235833 57 0.0 0.0 0.00 0.00 0.00 99 1008.8
20260505234825 58 0.0 0.0 0.00 0.00 0.00 99 1009.0
20260505233818 57 0.0 0.0 0.00 0.00 0.00 99 1009.1
20260505232810 58 0.0 0.0 0.00 0.00 0.00 99 1009.1
20260505231803 58 0.0 0.0 0.00 0.00 0.00 99 1009.1
20260505230756 58 0.0 0.0 0.00 0.00 0.00 99 1009.1
20260505225748 59 0.0 0.0 0.00 0.00 0.00 99 1009.1
20260505224741 59 0.0 0.0 0.00 0.00 0.00 99 1009.1
20260505223733 59 0.0 0.0 0.00 0.00 0.00 99 1009.0
20260505222726 59 0.0 0.0 0.00 0.00 0.00 99 1008.9
20260505221718 59 0.0 0.0 0.00 0.00 0.00 99 1008.8
20260505220711 59 0.0 0.0 0.00 0.00 0.00 99 1008.6
20260505215703 59 0.0 0.0 0.00 0.00 0.00 99 1008.6
20260505214656 59 0.0 0.0 0.00 0.00 0.00 99 1008.4
20260505213649 59 0.0 0.0 0.00 0.00 0.00 99 1008.3
20260505212641 59 0.0 0.0 0.00 0.00 0.00 99 1008.1
20260505211634 60 0.0 0.0 0.00 0.00 0.00 99 1007.9
20260505210626 60 0.0 0.0 0.00 0.00 0.00 99 1007.8
20260505205619 60 0.0 0.0 0.00 0.00 0.00 99 1007.7
20260505204611 60 0.0 0.0 0.00 0.00 0.00 99 1007.5
20260505203604 60 0.0 0.0 0.00 0.00 0.00 99 1007.3
20260505202556 60 0.0 0.0 0.00 0.00 0.00 99 1007.2
20260505201549 60 0.0 0.0 0.00 0.00 0.00 99 1007.2
20260505200541 59 0.0 0.0 0.00 0.00 0.00 99 1007.1
20260505195534 60 0.0 0.0 0.00 0.00 0.00 99 1006.8
20260505194526 60 0.0 0.0 0.00 0.00 0.00 99 1006.5
20260505193519 60 0.0 0.0 0.00 0.00 0.00 99 1006.3
20260505192508 60 0.0 0.0 0.00 0.00 0.00 99 1006.1
20260505191459 61 0.0 0.0 0.00 0.00 0.00 99 1005.9
20260505190451 61 0.0 0.0 0.00 0.00 0.00 99 1005.8
20260505185440 61 0.0 0.0 0.00 0.00 0.00 99 1005.7
20260505184432 62 0.0 0.0 0.00 0.00 0.00 99 1005.5
20260505183424 62 0.0 0.0 0.00 0.00 0.00 99 1005.4
20260505182417 63 0.0 0.0 0.00 0.00 0.00 99 1005.3
20260505181409 64 0.0 0.0 0.00 0.00 0.00 99 1005.1
20260505180402 64 0.0 0.0 0.00 0.00 0.00 99 1005.0
20260505175355 64 0.0 0.0 0.00 0.00 0.00 99 1005.0
20260505174347 64 0.0 0.0 0.00 0.00 0.00 99 1005.0
20260505173340 64 0.0 0.0 0.00 0.00 0.00 99 1005.0
20260505172332 64 0.0 0.0 0.00 0.00 0.00 99 1005.0
20260505171325 64 0.0 0.0 0.00 0.00 0.00 99 1005.0
20260505170317 64 0.0 0.0 0.00 0.00 0.00 99 1005.0
20260505165310 63 0.0 0.0 0.00 0.00 0.00 99 1005.1
20260505164302 64 0.0 0.0 0.00 0.00 0.00 99 1005.3
20260505163255 64 0.0 0.0 0.00 0.00 0.00 99 1005.5
20260505162248 64 0.0 0.0 0.00 0.00 0.00 99 1005.7
20260505161240 65 0.0 0.0 0.00 0.00 0.00 99 1005.4
20260505160232 67 0.0 0.0 0.00 0.00 0.00 99 1005.0
20260505153210 73 0.0 0.0 0.00 0.00 0.00 61 1004.0
20260505152202 74 0.0 0.0 0.00 0.00 0.00 59 1004.0
20260505151155 75 0.0 0.0 0.00 0.00 0.00 60 1003.9
20260505150147 75 0.0 0.0 0.00 0.00 0.00 56 1004.0
20260505125011 79 0.0 0.0 0.00 0.00 0.00 41 1004.8
20260505124003 80 0.0 0.0 0.00 0.00 0.00 39 1005.0
20260505122955 79 0.0 0.0 0.00 0.00 0.00 40 1005.2
20260505121948 78 0.0 0.0 0.00 0.00 0.00 40 1005.3
20260505120940 78 0.0 0.0 0.00 0.00 0.00 41 1005.5
20260505115933 78 0.0 0.0 0.00 0.00 0.00 41 1005.6
20260505114926 78 0.0 0.0 0.00 0.00 0.00 43 1005.8
20260505113918 77 0.0 0.0 0.00 0.00 0.00 44 1005.9
20260505112911 77 0.0 0.0 0.00 0.00 0.00 46 1006.1
20260505111903 76 0.0 0.0 0.00 0.00 0.00 47 1006.2
20260505110856 76 0.0 0.0 0.00 0.00 0.00 52 1006.3
20260505101819 72 0.0 0.0 0.00 0.00 0.00 76 1007.1
20260505100811 71 0.0 0.0 0.00 0.00 0.00 83 1007.2
20260505095804 71 0.0 0.0 0.00 0.00 0.00 71 1007.3
20260505094756 71 0.0 0.0 0.00 0.00 0.00 74 1007.4
20260505093749 70 0.0 0.0 0.00 0.00 0.00 95 1007.5
20260505092742 69 0.0 0.0 0.00 0.00 0.00 99 1007.6
20260505091734 69 0.0 0.0 0.00 0.00 0.00 95 1007.7
20260505090727 69 0.0 0.0 0.00 0.00 0.00 96 1007.7
20260505085719 69 0.0 0.0 0.00 0.00 0.00 99 1007.7
20260505084712 68 0.0 0.0 0.00 0.00 0.00 99 1007.7
20260505083704 67 0.0 0.0 0.00 0.00 0.00 99 1007.7
20260505082657 67 0.0 0.0 0.00 0.00 0.00 99 1007.8
20260505081649 66 0.0 0.0 0.00 0.00 0.00 99 1007.8
20260505080642 66 0.0 0.0 0.00 0.00 0.00 99 1007.9
20260505075634 65 0.0 0.0 0.00 0.00 0.00 99 1008.0
20260505074627 64 0.0 0.0 0.00 0.00 0.00 99 1008.0
20260505073620 63 0.0 0.0 0.00 0.00 0.00 99 1008.1
20260505072612 63 0.0 0.0 0.00 0.00 0.00 99 1008.2
20260505071605 63 0.0 0.0 0.00 0.00 0.00 99 1008.2
20260505070557 63 0.0 0.0 0.00 0.00 0.00 99 1008.2
20260505065549 62 0.0 0.0 0.00 0.00 0.00 99 1008.3
20260505064542 62 0.0 0.0 0.00 0.00 0.00 99 1008.3
20260505063534 61 0.0 0.0 0.00 0.00 0.00 99 1008.2
20260505062527 61 0.0 0.0 0.00 0.00 0.00 99 1008.2
20260505061520 60 0.0 0.0 0.00 0.00 0.00 99 1008.3
20260505060512 60 0.0 0.0 0.00 0.00 0.00 99 1008.4
20260505055505 59 0.0 0.0 0.00 0.00 0.00 99 1008.4
20260505054457 58 0.0 0.0 0.00 0.00 0.00 99 1008.5
20260505053449 58 0.0 0.0 0.00 0.00 0.00 99 1008.5
20260505052442 57 0.0 0.0 0.00 0.00 0.00 99 1008.5
20260505051434 57 0.0 0.0 0.00 0.00 0.00 99 1008.5
20260505050427 56 0.0 0.0 0.00 0.00 0.00 99 1008.4
20260505041350 56 0.0 0.0 0.00 0.00 0.00 99 1008.6
20260505040342 56 0.0 0.0 0.00 0.00 0.00 99 1008.7
20260505035335 56 0.0 0.0 0.00 0.00 0.00 99 1008.7
20260505034327 57 0.0 0.0 0.00 0.00 0.00 99 1008.7
20260505033320 57 0.0 0.0 0.00 0.00 0.00 99 1008.7
20260505032313 57 0.0 0.0 0.00 0.00 0.00 99 1008.8
20260505031305 57 0.0 0.0 0.00 0.00 0.00 99 1008.9
20260505030257 58 0.0 0.0 0.00 0.00 0.00 99 1009.0
20260505025250 58 0.0 0.0 0.00 0.00 0.00 99 1009.0
20260505024242 58 0.0 0.0 0.00 0.00 0.00 99 1009.1
20260505023235 58 0.0 0.0 0.00 0.00 0.00 99 1009.2
20260505022228 58 0.0 0.0 0.00 0.00 0.00 99 1009.3
20260505021220 59 0.0 0.0 0.00 0.00 0.00 99 1009.4
20260505020213 59 0.0 0.0 0.00 0.00 0.00 99 1009.5
20260505015205 60 0.0 0.0 0.00 0.00 0.00 99 1009.5
20260505014158 60 0.0 0.0 0.00 0.00 0.00 99 1009.6
20260505013150 60 0.0 0.0 0.00 0.00 0.00 99 1009.6
20260505012142 60 0.0 0.0 0.00 0.00 0.00 99 1009.6
20260505011135 61 0.0 0.0 0.00 0.00 0.00 99 1009.7
20260505010128 61 0.0 0.0 0.00 0.00 0.00 99 1009.8
20260505005120 61 0.0 0.0 0.00 0.00 0.00 99 1009.9
20260505004113 61 0.0 0.0 0.00 0.00 0.00 99 1010.0